Weather History for Maxwell AFB, AL

Change the Weather History Date:

Friday, May 16, 2014

  Actual Average Record
Temperature  
Mean Temperature 59 °F -  
Max Temperature 72 °F 83 °F 91 °F (1998)
Min Temperature 46 °F 62 °F 46 °F (2014)
Degree Days  
Heating Degree Days 6    
Growing Degree Days 9 (Base 50)    
Moisture  
Dew Point 48 °F    
Average Humidity 71    
Maximum Humidity 100    
Minimum Humidity 28    
Precipitation  
Precipitation 0.00 in - - ()
Sea Level Pressure  
Sea Level Pressure 30.13 in    
Wind  
Wind Speed 4 mph (WSW)    
Max Wind Speed 13 mph    
Max Gust Speed 23 mph    
Visibility 10 miles    
Events      
Averages and records for this station are not official NWS values.
T = Trace of Precipitation, MM = Missing Value Source: NWS Daily Summary

Daily Weather History Graph

Daily Weather History Graph

Search for Another Location

Airport:

Trip Planner

Search our weather history database for the weather conditions in past years. The results will help you decide how hot, cold, wet, or windy it might be!

Date:

Astronomy

May. 16, 2014 Rise Set
Actual Time 5:46 AM CDT 7:37 PM CDT
Civil Twilight 5:19 AM CDT 8:04 PM CDT
Nautical Twilight 4:46 AM CDT 8:37 PM CDT
Astronomical Twilight 4:12 AM CDT 9:12 PM CDT
Moon 9:43 PM CDT (5/16) 7:27 AM CDT (5/16)
Length of Visible Light 14h 44m
Length of Day
13h 50m
Waning Gibbous, 95% of the Moon is Illuminated
May 16
Waning Gibbous
May 21
Last Quarter
May 28
New
Jun 5
First Quarter
Jun 12
Full

Hourly Weather History & Observations

Time (CDT) Temp. Dew Point Humidity Pressure Visibility Wind Dir Wind Speed Gust Speed Precip Events Conditions
12:58 AM 51.3 °F 51.3 °F 100% 30.15 in 10.0 mi WNW 3.5 mph - N/A   Clear
1:58 AM 49.8 °F 49.8 °F 100% 30.13 in 10.0 mi SW 2.3 mph - N/A   Clear
2:58 AM 49.3 °F 49.3 °F 100% 30.12 in 10.0 mi WSW 2.3 mph - N/A   Clear
3:58 AM 48.7 °F 48.7 °F 100% 30.11 in 10.0 mi South 1.2 mph - N/A   Clear
4:48 AM 48.2 °F 48.2 °F 100% 30.10 in 2.5 mi Calm Calm - N/A   Clear
4:58 AM 47.8 °F 47.8 °F 100% 30.11 in 7.0 mi South 1.2 mph - N/A   Clear
5:58 AM 46.6 °F 46.6 °F 100% 30.12 in 10.0 mi South 1.2 mph - N/A   Clear
6:58 AM 51.8 °F 51.8 °F 100% 30.15 in 10.0 mi SW 2.3 mph - N/A   Clear
7:58 AM 56.7 °F 53.1 °F 88% 30.15 in 10.0 mi West 5.8 mph - N/A   Clear
8:58 AM 61.3 °F 50.4 °F 67% 30.16 in 10.0 mi West 6.9 mph - N/A   Partly Cloudy
9:58 AM 64.0 °F 49.6 °F 59% 30.16 in 10.0 mi WNW 6.9 mph - N/A   Clear
10:58 AM 67.3 °F 48.4 °F 51% 30.17 in 10.0 mi West 12.7 mph 19.6 mph N/A   Partly Cloudy
11:58 AM 68.5 °F 47.8 °F 48% 30.16 in 10.0 mi WNW 10.4 mph 23.0 mph N/A   Partly Cloudy
12:58 PM 69.4 °F 49.6 °F 49% 30.14 in 10.0 mi WSW 8.1 mph - N/A   Partly Cloudy
1:58 PM 71.1 °F 46.6 °F 42% 30.12 in 10.0 mi West 8.1 mph 17.3 mph N/A   Clear
2:58 PM 71.8 °F 45.7 °F 39% 30.12 in 10.0 mi West 9.2 mph - N/A   Clear
3:58 PM 71.8 °F 41.5 °F 34% 30.11 in 10.0 mi WNW 6.9 mph - N/A   Clear
4:58 PM 72.0 °F 36.9 °F 28% 30.10 in 10.0 mi WNW 9.2 mph - N/A   Clear
5:58 PM 71.4 °F 38.8 °F 31% 30.10 in 10.0 mi Variable 5.8 mph - N/A   Clear
6:58 PM 68.7 °F 45.0 °F 42% 30.12 in 10.0 mi West 6.9 mph - N/A   Clear
7:58 PM 63.5 °F 47.8 °F 57% 30.14 in 10.0 mi West 1.2 mph - N/A   Clear
8:58 PM 59.0 °F 48.9 °F 69% 30.14 in 10.0 mi NW 2.3 mph - N/A   Clear
9:58 PM 57.6 °F 50.2 °F 76% 30.15 in 10.0 mi Calm Calm - N/A   Clear
10:58 PM 55.2 °F 51.8 °F 88% 30.14 in 10.0 mi ESE 2.3 mph - N/A   Clear
11:58 PM 54.0 °F 53.8 °F 99% 30.16 in 10.0 mi West 1.2 mph - N/A   Clear